Time,TemperatureF,DewpointF,PressureIn,WindDirection,WindDirectionDegrees,WindSpeedMPH,WindSpeedGustMPH,Humidity,HourlyPrecipIn,Conditions,Clouds,dailyrainin,SoftwareType,DateUTC
2013-08-09 00:02:00,88.5,66.3,29.59,North,0,0.0,0.0,48,0.00,CLR,,0.00,WeatherDisplay:10.37,2013-08-09 05:02:00,
2013-08-09 00:07:00,88.3,66.8,29.58,North,0,0.0,0.0,49,0.00,CLR,,0.00,WeatherDisplay:10.37,2013-08-09 05:07:00,
2013-08-09 00:12:00,88.2,66.6,29.58,North,0,0.0,0.0,49,0.00,CLR,,0.00,WeatherDisplay:10.37,2013-08-09 05:12:00,
2013-08-09 00:17:00,87.8,66.3,29.58,North,0,0.0,0.0,49,0.00,CLR,,0.00,WeatherDisplay:10.37,2013-08-09 05:17:00,
2013-08-09 00:22:00,87.8,66.8,29.58,North,0,0.0,0.0,50,0.00,CLR,,0.00,WeatherDisplay:10.37,2013-08-09 05:22:00,
2013-08-09 00:27:00,87.4,66.5,29.58,North,0,0.0,0.0,50,0.00,CLR,,0.00,WeatherDisplay:10.37,2013-08-09 05:27:00,
2013-08-09 00:32:00,87.3,66.9,29.58,North,0,0.0,0.0,51,0.00,CLR,,0.00,WeatherDisplay:10.37,2013-08-09 05:32:00,
2013-08-09 00:37:00,87.1,66.8,29.58,North,0,0.0,0.0,51,0.00,CLR,,0.00,WeatherDisplay:10.37,2013-08-09 05:37:00,
2013-08-09 00:42:00,86.9,66.6,29.58,North,0,0.0,0.0,51,0.00,CLR,,0.00,WeatherDisplay:10.37,2013-08-09 05:42:00,
2013-08-09 00:47:00,86.9,66.6,29.59,North,0,0.0,0.0,51,0.00,CLR,,0.00,WeatherDisplay:10.37,2013-08-09 05:47:00,
2013-08-09 00:52:00,86.9,67.2,29.59,North,0,0.0,0.0,52,0.00,CLR,,0.00,WeatherDisplay:10.37,2013-08-09 05:52:00,
2013-08-09 00:57:00,86.7,66.4,29.59,North,0,0.0,0.0,51,0.00,CLR,,0.00,WeatherDisplay:10.37,2013-08-09 05:57:00,
2013-08-09 01:02:00,86.7,66.4,29.59,North,0,0.0,0.0,51,0.00,BKN,,0.00,WeatherDisplay:10.37,2013-08-09 06:02:00,
2013-08-09 01:07:00,86.7,67.0,29.60,North,0,0.0,0.0,52,0.00,BKN,,0.00,WeatherDisplay:10.37,2013-08-09 06:07:00,
2013-08-09 01:08:00,86.7,66.4,29.60,North,0,0.0,0.0,51,0.00,BKN,,0.00,WeatherDisplay:10.37,2013-08-09 06:08:00,
2013-08-09 01:13:00,86.5,66.3,29.60,North,0,0.0,0.0,51,0.00,BKN,,0.00,WeatherDisplay:10.37,2013-08-09 06:13:00,
2013-08-09 01:18:00,86.4,66.1,29.60,North,0,0.0,0.0,51,0.00,BKN,,0.00,WeatherDisplay:10.37,2013-08-09 06:18:00,
2013-08-09 01:23:00,86.4,66.1,29.60,North,0,0.0,0.0,51,0.00,BKN,,0.00,WeatherDisplay:10.37,2013-08-09 06:23:00,
2013-08-09 01:28:00,86.2,65.4,29.60,North,0,0.0,0.0,50,0.00,BKN,,0.00,WeatherDisplay:10.37,2013-08-09 06:28:00,
2013-08-09 01:33:00,86.2,65.4,29.61,North,0,0.0,0.0,50,0.00,BKN,,0.00,WeatherDisplay:10.37,2013-08-09 06:33:00,
2013-08-09 01:38:00,86.0,65.2,29.61,North,0,0.0,0.0,50,0.00,BKN,,0.00,WeatherDisplay:10.37,2013-08-09 06:38:00,
2013-08-09 01:43:00,86.0,65.2,29.61,North,0,0.0,0.0,50,0.00,BKN,,0.00,WeatherDisplay:10.37,2013-08-09 06:43:00,
2013-08-09 01:48:00,85.8,65.6,29.61,North,0,0.0,0.0,51,0.00,BKN,,0.00,WeatherDisplay:10.37,2013-08-09 06:48:00,
2013-08-09 01:53:00,85.6,65.4,29.61,North,0,0.0,0.0,51,0.00,BKN,,0.00,WeatherDisplay:10.37,2013-08-09 06:53:00,
2013-08-09 01:58:00,85.5,65.3,29.61,North,0,0.0,0.0,51,0.00,BKN,,0.00,WeatherDisplay:10.37,2013-08-09 06:58:00,
2013-08-09 02:03:00,85.3,65.1,29.61,North,0,0.0,0.0,51,0.00,CLR,,0.00,WeatherDisplay:10.37,2013-08-09 07:03:00,
2013-08-09 02:08:00,85.3,65.1,29.61,North,0,0.0,0.0,51,0.00,CLR,,0.00,WeatherDisplay:10.37,2013-08-09 07:08:00,
2013-08-09 02:13:00,85.3,65.1,29.61,North,0,0.0,0.0,51,0.00,CLR,,0.00,WeatherDisplay:10.37,2013-08-09 07:13:00,
2013-08-09 02:18:00,85.1,65.5,29.61,North,0,0.0,0.0,52,0.00,CLR,,0.00,WeatherDisplay:10.37,2013-08-09 07:18:00,
2013-08-09 02:23:00,85.1,65.5,29.61,North,0,0.0,0.0,52,0.00,CLR,,0.00,WeatherDisplay:10.37,2013-08-09 07:23:00,
2013-08-09 02:28:00,84.9,65.3,29.61,North,0,0.0,0.0,52,0.00,CLR,,0.00,WeatherDisplay:10.37,2013-08-09 07:28:00,
2013-08-09 02:33:00,84.9,65.9,29.61,North,0,0.0,0.0,53,0.00,CLR,,0.00,WeatherDisplay:10.37,2013-08-09 07:33:00,
2013-08-09 02:38:00,84.7,65.7,29.61,North,0,0.0,0.0,53,0.00,CLR,,0.00,WeatherDisplay:10.37,2013-08-09 07:38:00,
2013-08-09 02:43:00,84.6,65.5,29.61,North,0,0.0,0.0,53,0.00,CLR,,0.00,WeatherDisplay:10.37,2013-08-09 07:43:00,
2013-08-09 02:48:00,84.6,66.1,29.61,North,0,0.0,0.0,54,0.00,CLR,,0.00,WeatherDisplay:10.37,2013-08-09 07:48:00,
2013-08-09 02:53:00,84.4,66.4,29.61,North,0,0.0,0.0,55,0.00,CLR,,0.00,WeatherDisplay:10.37,2013-08-09 07:53:00,
2013-08-09 02:58:00,84.4,65.9,29.61,North,0,0.0,0.0,54,0.00,CLR,,0.00,WeatherDisplay:10.37,2013-08-09 07:58:00,
2013-08-09 03:03:00,84.4,66.4,29.62,North,0,0.0,0.0,55,0.00,CLR,,0.00,WeatherDisplay:10.37,2013-08-09 08:03:00,
2013-08-09 03:08:00,84.2,66.3,29.62,North,0,0.0,0.0,55,0.00,CLR,,0.00,WeatherDisplay:10.37,2013-08-09 08:08:00,
2013-08-09 03:13:00,84.2,66.8,29.62,North,0,0.0,0.0,56,0.00,CLR,,0.00,WeatherDisplay:10.37,2013-08-09 08:13:00,
2013-08-09 03:18:00,84.0,66.6,29.62,North,0,0.0,0.0,56,0.00,CLR,,0.00,WeatherDisplay:10.37,2013-08-09 08:18:00,
2013-08-09 03:23:00,84.0,66.6,29.61,North,0,0.0,0.0,56,0.00,CLR,,0.00,WeatherDisplay:10.37,2013-08-09 08:23:00,
2013-08-09 03:28:00,83.8,66.5,29.62,North,0,0.0,0.0,56,0.00,CLR,,0.00,WeatherDisplay:10.37,2013-08-09 08:28:00,
2013-08-09 03:33:00,83.8,65.9,29.62,North,0,0.0,0.0,55,0.00,CLR,,0.00,WeatherDisplay:10.37,2013-08-09 08:33:00,
2013-08-09 03:38:00,83.7,66.8,29.62,North,0,0.0,0.0,57,0.00,CLR,,0.00,WeatherDisplay:10.37,2013-08-09 08:38:00,
2013-08-09 03:43:00,83.7,66.8,29.62,North,0,0.0,0.0,57,0.00,CLR,,0.00,WeatherDisplay:10.37,2013-08-09 08:43:00,
2013-08-09 03:48:00,83.5,66.6,29.62,North,0,0.0,0.0,57,0.00,CLR,,0.00,WeatherDisplay:10.37,2013-08-09 08:48:00,
2013-08-09 03:53:00,83.5,66.6,29.62,North,0,0.0,0.0,57,0.00,CLR,,0.00,WeatherDisplay:10.37,2013-08-09 08:53:00,
2013-08-09 03:58:00,83.3,66.0,29.61,North,0,0.0,0.0,56,0.00,CLR,,0.00,WeatherDisplay:10.37,2013-08-09 08:58:00,
2013-08-09 04:03:00,83.1,65.8,29.61,North,0,0.0,0.0,56,0.00,CLR,,0.00,WeatherDisplay:10.37,2013-08-09 09:03:00,
2013-08-09 04:08:00,83.1,66.3,29.61,North,0,0.0,0.0,57,0.00,CLR,,0.00,WeatherDisplay:10.37,2013-08-09 09:08:00,
2013-08-09 04:13:00,82.9,66.1,29.61,North,0,0.0,0.0,57,0.00,CLR,,0.00,WeatherDisplay:10.37,2013-08-09 09:13:00,
2013-08-09 04:18:00,82.8,66.0,29.61,North,0,0.0,0.0,57,0.00,CLR,,0.00,WeatherDisplay:10.37,2013-08-09 09:18:00,
2013-08-09 04:23:00,82.8,66.0,29.61,North,0,0.0,0.0,57,0.00,CLR,,0.00,WeatherDisplay:10.37,2013-08-09 09:23:00,
2013-08-09 04:28:00,82.6,65.8,29.61,North,0,0.0,0.0,57,0.00,CLR,,0.00,WeatherDisplay:10.37,2013-08-09 09:28:00,
2013-08-09 04:33:00,82.4,65.6,29.61,North,0,0.0,0.0,57,0.00,CLR,,0.00,WeatherDisplay:10.37,2013-08-09 09:33:00,
2013-08-09 04:38:00,82.4,66.1,29.61,North,0,0.0,0.0,58,0.00,CLR,,0.00,WeatherDisplay:10.37,2013-08-09 09:38:00,
2013-08-09 04:44:00,82.2,66.0,29.61,North,0,0.0,0.0,58,0.00,CLR,,0.00,WeatherDisplay:10.37,2013-08-09 09:44:00,
2013-08-09 04:49:00,82.0,65.3,29.61,North,0,0.0,0.0,57,0.00,CLR,,0.00,WeatherDisplay:10.37,2013-08-09 09:49:00,
2013-08-09 04:54:00,82.0,65.8,29.62,North,0,0.0,0.0,58,0.00,CLR,,0.00,WeatherDisplay:10.37,2013-08-09 09:54:00,
2013-08-09 04:59:00,81.7,66.0,29.62,North,0,0.0,0.0,59,0.00,CLR,,0.00,WeatherDisplay:10.37,2013-08-09 09:59:00,
2013-08-09 05:04:00,81.7,66.0,29.63,North,0,0.0,0.0,59,0.00,CLR,,0.00,WeatherDisplay:10.37,2013-08-09 10:04:00,
2013-08-09 05:09:00,81.5,65.8,29.63,North,0,0.0,0.0,59,0.00,CLR,,0.00,WeatherDisplay:10.37,2013-08-09 10:09:00,
2013-08-09 05:14:00,81.3,65.6,29.63,North,0,0.0,0.0,59,0.00,CLR,,0.00,WeatherDisplay:10.37,2013-08-09 10:14:00,
2013-08-09 05:19:00,81.0,65.3,29.63,North,0,0.0,0.0,59,0.00,CLR,,0.00,WeatherDisplay:10.37,2013-08-09 10:19:00,
2013-08-09 05:24:00,81.0,65.3,29.63,North,0,0.0,0.0,59,0.00,CLR,,0.00,WeatherDisplay:10.37,2013-08-09 10:24:00,
2013-08-09 05:29:00,80.8,65.6,29.63,North,0,0.0,0.0,60,0.00,CLR,,0.00,WeatherDisplay:10.37,2013-08-09 10:29:00,
2013-08-09 05:34:00,80.6,65.4,29.63,North,0,0.0,0.0,60,0.00,CLR,,0.00,WeatherDisplay:10.37,2013-08-09 10:34:00,
2013-08-09 05:39:00,80.6,65.4,29.63,North,0,0.0,0.0,60,0.00,CLR,,0.00,WeatherDisplay:10.37,2013-08-09 10:39:00,
2013-08-09 05:44:00,80.4,65.3,29.63,North,0,0.0,0.0,60,0.00,CLR,,0.00,WeatherDisplay:10.37,2013-08-09 10:44:00,
2013-08-09 05:49:00,80.4,65.7,29.63,North,0,0.0,0.0,61,0.00,CLR,,0.00,WeatherDisplay:10.37,2013-08-09 10:49:00,
2013-08-09 05:54:00,80.4,65.7,29.63,North,0,0.0,0.0,61,0.00,CLR,,0.00,WeatherDisplay:10.37,2013-08-09 10:54:00,
2013-08-09 05:59:00,80.2,65.6,29.63,North,0,0.0,0.0,61,0.00,CLR,,0.00,WeatherDisplay:10.37,2013-08-09 10:59:00,
2013-08-09 06:04:00,80.2,65.6,29.63,North,0,0.0,0.0,61,0.00,CLR,,0.00,WeatherDisplay:10.37,2013-08-09 11:04:00,
2013-08-09 06:09:00,80.2,65.6,29.63,North,0,0.0,0.0,61,0.00,CLR,,0.00,WeatherDisplay:10.37,2013-08-09 11:09:00,
2013-08-09 06:14:00,80.2,65.6,29.64,North,0,0.0,0.0,61,0.00,CLR,,0.00,WeatherDisplay:10.37,2013-08-09 11:14:00,
2013-08-09 06:19:00,80.1,65.4,29.65,North,0,0.0,0.0,61,0.00,CLR,,0.00,WeatherDisplay:10.37,2013-08-09 11:19:00,
2013-08-09 06:24:00,80.1,65.9,29.65,North,0,0.0,0.0,62,0.00,CLR,,0.00,WeatherDisplay:10.37,2013-08-09 11:24:00,
2013-08-09 06:29:00,79.9,65.2,29.65,North,0,0.0,0.0,61,0.00,CLR,,0.00,WeatherDisplay:10.37,2013-08-09 11:29:00,
2013-08-09 06:34:00,79.9,65.7,29.66,North,0,0.0,0.0,62,0.00,CLR,,0.00,WeatherDisplay:10.37,2013-08-09 11:34:00,
2013-08-09 06:39:00,79.7,65.5,29.66,North,0,0.0,0.0,62,0.00,CLR,,0.00,WeatherDisplay:10.37,2013-08-09 11:39:00,
2013-08-09 06:44:00,79.5,65.4,29.66,North,0,0.0,0.0,62,0.00,CLR,,0.00,WeatherDisplay:10.37,2013-08-09 11:44:00,
2013-08-09 06:49:00,79.5,65.4,29.66,North,0,0.0,0.0,62,0.00,CLR,,0.00,WeatherDisplay:10.37,2013-08-09 11:49:00,
2013-08-09 06:54:00,79.5,65.4,29.66,North,0,0.0,0.0,62,0.00,CLR,,0.00,WeatherDisplay:10.37,2013-08-09 11:54:00,
2013-08-09 06:59:00,79.3,65.2,29.66,North,0,0.0,0.0,62,0.00,CLR,,0.00,WeatherDisplay:10.37,2013-08-09 11:59:00,
2013-08-09 07:04:00,79.3,65.2,29.66,North,0,0.0,0.0,62,0.00,CLR,,0.00,WeatherDisplay:10.37,2013-08-09 12:04:00,
2013-08-09 07:09:00,79.3,65.6,29.66,North,0,0.0,0.0,63,0.00,CLR,,0.00,WeatherDisplay:10.37,2013-08-09 12:09:00,
2013-08-09 07:14:00,79.2,65.5,29.67,North,0,0.0,0.0,63,0.00,CLR,,0.00,WeatherDisplay:10.37,2013-08-09 12:14:00,
2013-08-09 07:19:00,79.2,65.5,29.67,North,0,0.0,0.0,63,0.00,CLR,,0.00,WeatherDisplay:10.37,2013-08-09 12:19:00,
2013-08-09 07:24:00,79.2,65.9,29.67,North,0,0.0,0.0,64,0.00,CLR,,0.00,WeatherDisplay:10.37,2013-08-09 12:24:00,
2013-08-09 07:29:00,79.2,65.9,29.67,North,0,0.0,0.0,64,0.00,CLR,,0.00,WeatherDisplay:10.37,2013-08-09 12:29:00,
2013-08-09 07:34:00,79.2,65.9,29.67,North,0,0.0,0.0,64,0.00,CLR,,0.00,WeatherDisplay:10.37,2013-08-09 12:34:00,
2013-08-09 07:39:00,79.2,65.9,29.67,North,0,0.0,0.0,64,0.00,CLR,,0.00,WeatherDisplay:10.37,2013-08-09 12:39:00,
2013-08-09 07:44:00,79.3,66.5,29.67,North,0,0.0,0.0,65,0.00,CLR,,0.00,WeatherDisplay:10.37,2013-08-09 12:44:00,
2013-08-09 07:49:00,79.5,66.7,29.67,North,0,0.0,0.0,65,0.00,CLR,,0.00,WeatherDisplay:10.37,2013-08-09 12:49:00,
2013-08-09 07:54:00,79.9,67.5,29.67,North,0,0.0,0.0,66,0.00,CLR,,0.00,WeatherDisplay:10.37,2013-08-09 12:54:00,
2013-08-09 07:59:00,80.1,67.2,29.67,North,0,0.0,0.0,65,0.00,CLR,,0.00,WeatherDisplay:10.37,2013-08-09 12:59:00,
2013-08-09 08:04:00,80.2,67.4,29.67,North,0,0.0,0.0,65,0.00,CLR,,0.00,WeatherDisplay:10.37,2013-08-09 13:04:00,
2013-08-09 08:09:00,80.6,68.2,29.67,North,0,0.0,0.0,66,0.00,CLR,,0.00,WeatherDisplay:10.37,2013-08-09 13:09:00,
2013-08-09 08:14:00,80.8,68.4,29.67,North,0,0.0,0.0,66,0.00,CLR,,0.00,WeatherDisplay:10.37,2013-08-09 13:14:00,
2013-08-09 08:19:00,81.0,68.5,29.67,North,0,0.0,0.0,66,0.00,CLR,,0.00,WeatherDisplay:10.37,2013-08-09 13:19:00,
2013-08-09 08:24:00,81.1,68.7,29.67,North,0,0.0,0.0,66,0.00,CLR,,0.00,WeatherDisplay:10.37,2013-08-09 13:24:00,
2013-08-09 08:29:00,81.3,68.9,29.68,North,0,0.0,0.0,66,0.00,CLR,,0.00,WeatherDisplay:10.37,2013-08-09 13:29:00,
2013-08-09 08:34:00,81.5,69.0,29.68,North,0,0.0,0.0,66,0.00,CLR,,0.00,WeatherDisplay:10.37,2013-08-09 13:34:00,
2013-08-09 08:39:00,81.7,69.2,29.68,North,0,0.0,0.0,66,0.00,CLR,,0.00,WeatherDisplay:10.37,2013-08-09 13:39:00,
2013-08-09 08:44:00,81.9,69.4,29.68,North,0,0.0,0.0,66,0.00,CLR,,0.00,WeatherDisplay:10.37,2013-08-09 13:44:00,
2013-08-09 08:49:00,81.9,69.4,29.68,North,0,0.0,0.0,66,0.00,CLR,,0.00,WeatherDisplay:10.37,2013-08-09 13:49:00,
2013-08-09 08:54:00,82.2,69.7,29.68,North,0,0.0,0.0,66,0.00,CLR,,0.00,WeatherDisplay:10.37,2013-08-09 13:54:00,
2013-08-09 08:59:00,82.4,69.9,29.68,North,0,0.0,0.0,66,0.00,CLR,,0.00,WeatherDisplay:10.37,2013-08-09 13:59:00,
2013-08-09 09:04:00,82.8,70.7,29.68,North,0,0.0,0.0,67,0.00,CLR,,0.00,WeatherDisplay:10.37,2013-08-09 14:04:00,
2013-08-09 09:09:00,83.1,71.0,29.68,North,0,0.0,0.0,67,0.00,CLR,,0.00,WeatherDisplay:10.37,2013-08-09 14:09:00,
2013-08-09 09:14:00,83.3,70.8,29.68,North,0,0.0,0.0,66,0.00,CLR,,0.00,WeatherDisplay:10.37,2013-08-09 14:14:00,
2013-08-09 09:19:00,83.5,70.9,29.68,North,0,0.0,0.0,66,0.00,CLR,,0.00,WeatherDisplay:10.37,2013-08-09 14:19:00,
2013-08-09 09:24:00,83.7,70.6,29.68,North,0,0.0,0.0,65,0.00,CLR,,0.00,WeatherDisplay:10.37,2013-08-09 14:24:00,
2013-08-09 09:29:00,83.8,71.3,29.68,North,0,0.0,0.0,66,0.00,CLR,,0.00,WeatherDisplay:10.37,2013-08-09 14:29:00,
2013-08-09 09:34:00,84.0,71.0,29.68,North,0,0.0,0.0,65,0.00,CLR,,0.00,WeatherDisplay:10.37,2013-08-09 14:34:00,
2013-08-09 09:39:00,84.2,70.7,29.68,North,0,0.0,0.0,64,0.00,CLR,,0.00,WeatherDisplay:10.37,2013-08-09 14:39:00,
2013-08-09 09:44:00,84.4,70.4,29.68,North,0,0.0,0.0,63,0.00,CLR,,0.00,WeatherDisplay:10.37,2013-08-09 14:44:00,
2013-08-09 09:49:00,84.6,70.1,29.68,North,0,0.0,0.0,62,0.00,CLR,,0.00,WeatherDisplay:10.37,2013-08-09 14:49:00,
2013-08-09 09:54:00,84.9,70.0,29.68,North,0,0.0,0.0,61,0.00,CLR,,0.00,WeatherDisplay:10.37,2013-08-09 14:54:00,
2013-08-09 09:59:00,85.1,69.7,29.68,North,0,0.0,0.0,60,0.00,CLR,,0.00,WeatherDisplay:10.37,2013-08-09 14:59:00,
2013-08-09 10:04:00,85.5,69.0,29.68,North,0,0.0,0.0,58,0.00,CLR,,0.00,WeatherDisplay:10.37,2013-08-09 15:04:00,
2013-08-09 10:10:00,85.8,69.3,29.68,North,0,0.0,0.0,58,0.00,CLR,,0.00,WeatherDisplay:10.37,2013-08-09 15:10:00,
2013-08-09 10:15:00,86.2,69.2,29.68,North,0,0.0,0.0,57,0.00,CLR,,0.00,WeatherDisplay:10.37,2013-08-09 15:15:00,
2013-08-09 10:20:00,86.5,69.5,29.68,North,0,0.0,0.0,57,0.00,CLR,,0.00,WeatherDisplay:10.37,2013-08-09 15:20:00,
2013-08-09 10:25:00,86.9,69.3,29.69,North,0,0.0,0.0,56,0.00,CLR,,0.00,WeatherDisplay:10.37,2013-08-09 15:25:00,
2013-08-09 10:30:00,87.3,69.6,29.69,North,0,0.0,0.0,56,0.00,CLR,,0.00,WeatherDisplay:10.37,2013-08-09 15:30:00,
2013-08-09 10:35:00,87.4,69.3,29.69,North,0,0.0,0.0,55,0.00,CLR,,0.00,WeatherDisplay:10.37,2013-08-09 15:35:00,
2013-08-09 10:40:00,87.8,69.6,29.69,North,0,0.0,0.0,55,0.00,CLR,,0.00,WeatherDisplay:10.37,2013-08-09 15:40:00,
2013-08-09 10:45:00,88.2,70.0,29.69,North,0,0.0,0.0,55,0.00,CLR,,0.00,WeatherDisplay:10.37,2013-08-09 15:45:00,
2013-08-09 10:50:00,88.5,69.8,29.69,North,0,0.0,0.0,54,0.00,CLR,,0.00,WeatherDisplay:10.37,2013-08-09 15:50:00,
2013-08-09 10:55:00,88.9,70.1,29.69,North,0,0.0,0.0,54,0.00,CLR,,0.00,WeatherDisplay:10.37,2013-08-09 15:55:00,
2013-08-09 11:00:00,89.2,70.4,29.69,North,0,0.0,0.0,54,0.00,CLR,,0.00,WeatherDisplay:10.37,2013-08-09 16:00:00,
2013-08-09 11:05:00,89.4,70.0,29.69,North,0,0.0,0.0,53,0.00,CLR,,0.00,WeatherDisplay:10.37,2013-08-09 16:05:00,
2013-08-09 11:10:00,89.6,70.2,29.69,North,0,0.0,0.0,53,0.00,CLR,,0.00,WeatherDisplay:10.37,2013-08-09 16:10:00,
2013-08-09 11:15:00,90.0,70.0,29.69,North,0,0.0,0.0,52,0.00,CLR,,0.00,WeatherDisplay:10.37,2013-08-09 16:15:00,
2013-08-09 11:20:00,90.5,69.9,29.69,North,0,0.0,0.0,51,0.00,CLR,,0.00,WeatherDisplay:10.37,2013-08-09 16:20:00,
2013-08-09 11:25:00,90.9,70.2,29.69,North,0,0.0,0.0,51,0.00,CLR,,0.00,WeatherDisplay:10.37,2013-08-09 16:25:00,
2013-08-09 11:30:00,91.2,70.0,29.69,North,0,0.0,0.0,50,0.00,CLR,,0.00,WeatherDisplay:10.37,2013-08-09 16:30:00,
2013-08-09 11:35:00,91.4,70.1,29.69,North,0,0.0,0.0,50,0.00,CLR,,0.00,WeatherDisplay:10.37,2013-08-09 16:35:00,
2013-08-09 11:40:00,91.8,69.9,29.69,North,0,0.0,0.0,49,0.00,CLR,,0.00,WeatherDisplay:10.37,2013-08-09 16:40:00,
2013-08-09 11:45:00,91.9,68.2,29.68,North,0,0.0,0.0,46,0.00,CLR,,0.00,WeatherDisplay:10.37,2013-08-09 16:45:00,
2013-08-09 11:50:00,92.5,69.9,29.68,North,0,0.0,0.0,48,0.00,CLR,,0.00,WeatherDisplay:10.37,2013-08-09 16:50:00,
2013-08-09 11:55:00,92.7,69.5,29.68,North,0,0.0,0.0,47,0.00,CLR,,0.00,WeatherDisplay:10.37,2013-08-09 16:55:00,
2013-08-09 12:00:00,92.8,69.0,29.68,North,0,0.0,0.0,46,0.00,CLR,,0.00,WeatherDisplay:10.37,2013-08-09 17:00:00,
2013-08-09 12:05:00,93.2,69.3,29.68,North,0,0.0,0.0,46,0.00,CLR,,0.00,WeatherDisplay:10.37,2013-08-09 17:05:00,
2013-08-09 12:10:00,93.4,67.5,29.68,North,0,0.0,0.0,43,0.00,CLR,,0.00,WeatherDisplay:10.37,2013-08-09 17:10:00,
2013-08-09 12:15:00,93.7,69.2,29.68,North,0,0.0,0.0,45,0.00,CLR,,0.00,WeatherDisplay:10.37,2013-08-09 17:15:00,
2013-08-09 12:20:00,94.1,68.2,29.68,North,0,0.0,0.0,43,0.00,CLR,,0.00,WeatherDisplay:10.37,2013-08-09 17:20:00,
2013-08-09 12:25:00,94.5,67.8,29.67,North,0,0.0,0.0,42,0.00,CLR,,0.00,WeatherDisplay:10.37,2013-08-09 17:25:00,
2013-08-09 12:30:00,94.6,67.3,29.67,North,0,0.0,0.0,41,0.00,CLR,,0.00,WeatherDisplay:10.37,2013-08-09 17:30:00,
2013-08-09 12:35:00,95.0,66.9,29.67,North,0,0.0,0.0,40,0.00,CLR,,0.00,WeatherDisplay:10.37,2013-08-09 17:35:00,
2013-08-09 12:40:00,95.5,67.4,29.67,North,0,0.0,0.0,40,0.00,CLR,,0.00,WeatherDisplay:10.37,2013-08-09 17:40:00,
2013-08-09 12:45:00,95.9,63.8,29.67,North,0,0.0,0.0,35,0.00,CLR,,0.00,WeatherDisplay:10.37,2013-08-09 17:45:00,
2013-08-09 12:50:00,96.4,63.5,29.67,North,0,0.0,0.0,34,0.00,CLR,,0.00,WeatherDisplay:10.37,2013-08-09 17:50:00,
2013-08-09 12:55:00,96.8,65.4,29.67,North,0,0.0,0.0,36,0.00,CLR,,0.00,WeatherDisplay:10.37,2013-08-09 17:55:00,
2013-08-09 13:00:00,97.0,65.6,29.67,North,0,0.0,0.0,36,0.00,CLR,,0.00,WeatherDisplay:10.37,2013-08-09 18:00:00,
2013-08-09 13:05:00,97.2,62.4,29.67,North,0,0.0,0.0,32,0.00,CLR,,0.00,WeatherDisplay:10.37,2013-08-09 18:05:00,
2013-08-09 13:10:00,97.3,62.5,29.66,North,0,0.0,0.0,32,0.00,CLR,,0.00,WeatherDisplay:10.37,2013-08-09 18:10:00,
2013-08-09 13:15:00,97.5,61.8,29.66,North,0,0.0,0.0,31,0.00,CLR,,0.00,WeatherDisplay:10.37,2013-08-09 18:15:00,
2013-08-09 13:20:00,97.5,60.9,29.67,North,0,0.0,0.0,30,0.00,CLR,,0.00,WeatherDisplay:10.37,2013-08-09 18:20:00,
2013-08-09 13:25:00,97.9,62.1,29.67,North,0,0.0,0.0,31,0.00,CLR,,0.00,WeatherDisplay:10.37,2013-08-09 18:25:00,
2013-08-09 13:30:00,98.4,60.7,29.66,North,0,0.0,0.0,29,0.00,CLR,,0.00,WeatherDisplay:10.37,2013-08-09 18:30:00,
2013-08-09 13:35:00,98.4,60.7,29.67,North,0,0.0,0.0,29,0.00,CLR,,0.00,WeatherDisplay:10.37,2013-08-09 18:35:00,
2013-08-09 13:40:00,98.6,61.8,29.66,North,0,0.0,0.0,30,0.00,CLR,,0.00,WeatherDisplay:10.37,2013-08-09 18:40:00,
2013-08-09 13:45:00,99.0,61.2,29.66,North,0,0.0,0.0,29,0.00,CLR,,0.00,WeatherDisplay:10.37,2013-08-09 18:45:00,
2013-08-09 13:50:00,99.0,62.1,29.66,North,0,0.0,0.0,30,0.00,CLR,,0.00,WeatherDisplay:10.37,2013-08-09 18:50:00,
2013-08-09 13:55:00,99.0,61.2,29.66,North,0,0.0,0.0,29,0.00,CLR,,0.00,WeatherDisplay:10.37,2013-08-09 18:55:00,
2013-08-09 14:00:00,98.6,61.8,29.66,North,0,0.0,0.0,30,0.00,CLR,,0.00,WeatherDisplay:10.37,2013-08-09 19:00:00,
2013-08-09 14:05:00,98.8,62.0,29.66,North,0,0.0,0.0,30,0.00,CLR,,0.00,WeatherDisplay:10.37,2013-08-09 19:05:00,
2013-08-09 14:10:00,98.6,62.7,29.66,North,0,0.0,0.0,31,0.00,CLR,,0.00,WeatherDisplay:10.37,2013-08-09 19:10:00,
2013-08-09 14:15:00,99.0,63.9,29.66,North,0,0.0,0.0,32,0.00,CLR,,0.00,WeatherDisplay:10.37,2013-08-09 19:15:00,
2013-08-09 14:20:00,99.5,62.6,29.66,North,0,0.0,0.0,30,0.00,CLR,,0.00,WeatherDisplay:10.37,2013-08-09 19:20:00,
2013-08-09 14:25:00,99.7,62.7,29.65,North,0,0.0,0.0,30,0.00,CLR,,0.00,WeatherDisplay:10.37,2013-08-09 19:25:00,
2013-08-09 14:30:00,99.7,62.7,29.65,North,0,0.0,0.0,30,0.00,CLR,,0.00,WeatherDisplay:10.37,2013-08-09 19:30:00,
2013-08-09 14:36:00,99.7,61.8,29.65,North,0,0.0,0.0,29,0.00,CLR,,0.00,WeatherDisplay:10.37,2013-08-09 19:36:00,
2013-08-09 14:41:00,100.0,63.0,29.65,North,0,0.0,0.0,30,0.00,CLR,,0.00,WeatherDisplay:10.37,2013-08-09 19:41:00,
2013-08-09 14:46:00,100.0,62.1,29.65,North,0,0.0,0.0,29,0.00,CLR,,0.00,WeatherDisplay:10.37,2013-08-09 19:46:00,
2013-08-09 14:51:00,100.4,62.4,29.65,North,0,0.0,0.0,29,0.00,CLR,,0.00,WeatherDisplay:10.37,2013-08-09 19:51:00,
2013-08-09 14:56:00,100.4,61.4,29.64,North,0,0.0,0.0,28,0.00,CLR,,0.00,WeatherDisplay:10.37,2013-08-09 19:56:00,
2013-08-09 15:01:00,100.4,63.3,29.64,North,0,0.0,0.0,30,0.00,CLR,,0.00,WeatherDisplay:10.37,2013-08-09 20:01:00,
2013-08-09 15:06:00,100.6,63.5,29.64,North,0,0.0,0.0,30,0.00,CLR,,0.00,WeatherDisplay:10.37,2013-08-09 20:06:00,
2013-08-09 15:11:00,100.9,62.8,29.64,North,0,0.0,0.0,29,0.00,CLR,,0.00,WeatherDisplay:10.37,2013-08-09 20:11:00,
2013-08-09 15:16:00,101.1,58.8,29.64,North,0,0.0,0.0,25,0.00,CLR,,0.00,WeatherDisplay:10.37,2013-08-09 20:16:00,
2013-08-09 15:21:00,101.1,61.0,29.64,North,0,0.0,0.0,27,0.00,CLR,,0.00,WeatherDisplay:10.37,2013-08-09 20:21:00,
2013-08-09 15:26:00,101.3,61.1,29.64,North,0,0.0,0.0,27,0.00,CLR,,0.00,WeatherDisplay:10.37,2013-08-09 20:26:00,
2013-08-09 15:31:00,101.5,60.2,29.64,North,0,0.0,0.0,26,0.00,CLR,,0.00,WeatherDisplay:10.37,2013-08-09 20:31:00,
2013-08-09 15:36:00,101.5,60.2,29.63,North,0,0.0,0.0,26,0.00,CLR,,0.00,WeatherDisplay:10.37,2013-08-09 20:36:00,
2013-08-09 15:41:00,101.8,63.6,29.63,North,0,0.0,0.0,29,0.00,CLR,,0.00,WeatherDisplay:10.37,2013-08-09 20:41:00,
2013-08-09 15:46:00,102.0,60.7,29.63,North,0,0.0,0.0,26,0.00,CLR,,0.00,WeatherDisplay:10.37,2013-08-09 20:46:00,
2013-08-09 15:51:00,102.2,60.8,29.63,North,0,0.0,0.0,26,0.00,CLR,,0.00,WeatherDisplay:10.37,2013-08-09 20:51:00,
2013-08-09 15:56:00,102.4,58.7,29.63,North,0,0.0,0.0,24,0.00,CLR,,0.00,WeatherDisplay:10.37,2013-08-09 20:56:00,
2013-08-09 16:01:00,102.0,60.7,29.63,North,0,0.0,0.0,26,0.00,CLR,,0.00,WeatherDisplay:10.37,2013-08-09 21:01:00,
2013-08-09 16:06:00,101.8,60.5,29.63,North,0,0.0,0.0,26,0.00,CLR,,0.00,WeatherDisplay:10.37,2013-08-09 21:06:00,
2013-08-09 16:11:00,101.8,59.4,29.63,North,0,0.0,0.0,25,0.00,CLR,,0.00,WeatherDisplay:10.37,2013-08-09 21:11:00,
2013-08-09 16:16:00,102.0,60.7,29.62,North,0,0.0,0.0,26,0.00,CLR,,0.00,WeatherDisplay:10.37,2013-08-09 21:16:00,
2013-08-09 16:21:00,102.6,61.1,29.63,North,0,0.0,0.0,26,0.00,CLR,,0.00,WeatherDisplay:10.37,2013-08-09 21:21:00,
2013-08-09 16:26:00,102.9,61.4,29.62,North,0,0.0,0.0,26,0.00,CLR,,0.00,WeatherDisplay:10.37,2013-08-09 21:26:00,
2013-08-09 16:31:00,102.9,60.3,29.62,North,0,0.0,0.0,25,0.00,CLR,,0.00,WeatherDisplay:10.37,2013-08-09 21:31:00,
2013-08-09 16:36:00,103.1,60.5,29.62,North,0,0.0,0.0,25,0.00,CLR,,0.00,WeatherDisplay:10.37,2013-08-09 21:36:00,
2013-08-09 16:41:00,103.3,60.6,29.62,North,0,0.0,0.0,25,0.00,CLR,,0.00,WeatherDisplay:10.37,2013-08-09 21:41:00,
2013-08-09 16:46:00,103.3,59.5,29.61,North,0,0.0,0.0,24,0.00,CLR,,0.00,WeatherDisplay:10.37,2013-08-09 21:46:00,
2013-08-09 16:51:00,103.1,58.1,29.61,North,0,0.0,0.0,23,0.00,CLR,,0.00,WeatherDisplay:10.37,2013-08-09 21:51:00,
2013-08-09 16:56:00,103.1,60.5,29.61,North,0,0.0,0.0,25,0.00,CLR,,0.00,WeatherDisplay:10.37,2013-08-09 21:56:00,
2013-08-09 17:01:00,103.5,58.4,29.61,North,0,0.0,0.0,23,0.00,CLR,,0.00,WeatherDisplay:10.37,2013-08-09 22:01:00,
2013-08-09 17:06:00,103.5,59.6,29.61,North,0,0.0,0.0,24,0.00,CLR,,0.00,WeatherDisplay:10.37,2013-08-09 22:06:00,
2013-08-09 17:11:00,103.6,60.9,29.61,North,0,0.0,0.0,25,0.00,CLR,,0.00,WeatherDisplay:10.37,2013-08-09 22:11:00,
2013-08-09 17:16:00,103.6,58.6,29.61,North,0,0.0,0.0,23,0.00,CLR,,0.00,WeatherDisplay:10.37,2013-08-09 22:16:00,
2013-08-09 17:21:00,103.6,59.8,29.60,North,0,0.0,0.0,24,0.00,CLR,,0.00,WeatherDisplay:10.37,2013-08-09 22:21:00,
2013-08-09 17:26:00,103.8,58.7,29.60,North,0,0.0,0.0,23,0.00,CLR,,0.00,WeatherDisplay:10.37,2013-08-09 22:26:00,
2013-08-09 17:32:00,104.4,59.2,29.60,North,0,0.0,0.0,23,0.00,CLR,,0.00,WeatherDisplay:10.37,2013-08-09 22:32:00,
2013-08-09 17:37:00,104.4,57.9,29.60,North,0,0.0,0.0,22,0.00,CLR,,0.00,WeatherDisplay:10.37,2013-08-09 22:37:00,
2013-08-09 17:42:00,104.7,59.5,29.60,North,0,0.0,0.0,23,0.00,CLR,,0.00,WeatherDisplay:10.37,2013-08-09 22:42:00,
2013-08-09 17:47:00,104.9,58.4,29.60,North,0,0.0,0.0,22,0.00,CLR,,0.00,WeatherDisplay:10.37,2013-08-09 22:47:00,
2013-08-09 17:52:00,104.9,58.4,29.60,North,0,0.0,0.0,22,0.00,CLR,,0.00,WeatherDisplay:10.37,2013-08-09 22:52:00,
2013-08-09 17:57:00,105.1,58.5,29.60,North,0,0.0,0.0,22,0.00,CLR,,0.00,WeatherDisplay:10.37,2013-08-09 22:57:00,
2013-08-09 18:02:00,105.1,58.5,29.61,North,0,0.0,0.0,22,0.00,CLR,,0.00,WeatherDisplay:10.37,2013-08-09 23:02:00,
2013-08-09 18:07:00,104.9,59.6,29.60,North,0,0.0,0.0,23,0.00,CLR,,0.00,WeatherDisplay:10.37,2013-08-09 23:07:00,
2013-08-09 18:12:00,105.1,59.8,29.60,North,0,0.0,0.0,23,0.00,CLR,,0.00,WeatherDisplay:10.37,2013-08-09 23:12:00,
2013-08-09 18:17:00,105.1,58.5,29.60,North,0,0.0,0.0,22,0.00,CLR,,0.00,WeatherDisplay:10.37,2013-08-09 23:17:00,
2013-08-09 18:22:00,105.1,58.5,29.60,North,0,0.0,0.0,22,0.00,CLR,,0.00,WeatherDisplay:10.37,2013-08-09 23:22:00,
2013-08-09 18:27:00,104.9,58.4,29.60,North,0,0.0,0.0,22,0.00,CLR,,0.00,WeatherDisplay:10.37,2013-08-09 23:27:00,
2013-08-09 18:32:00,104.5,58.1,29.60,North,0,0.0,0.0,22,0.00,CLR,,0.00,WeatherDisplay:10.37,2013-08-09 23:32:00,
2013-08-09 18:37:00,104.4,57.9,29.60,North,0,0.0,0.0,22,0.00,CLR,,0.00,WeatherDisplay:10.37,2013-08-09 23:37:00,
2013-08-09 18:42:00,104.0,57.6,29.60,North,0,0.0,0.0,22,0.00,CLR,,0.00,WeatherDisplay:10.37,2013-08-09 23:42:00,
2013-08-09 18:47:00,104.0,58.9,29.61,North,0,0.0,0.0,23,0.00,CLR,,0.00,WeatherDisplay:10.37,2013-08-09 23:47:00,
2013-08-09 18:52:00,104.4,59.2,29.61,North,0,0.0,0.0,23,0.00,CLR,,0.00,WeatherDisplay:10.37,2013-08-09 23:52:00,
2013-08-09 18:57:00,104.4,57.9,29.61,North,0,0.0,0.0,22,0.00,CLR,,0.00,WeatherDisplay:10.37,2013-08-09 23:57:00,
2013-08-09 19:02:00,104.0,57.6,29.62,North,0,0.0,0.0,22,0.00,CLR,,0.00,WeatherDisplay:10.37,2013-08-10 00:02:00,
2013-08-09 19:07:00,103.6,57.3,29.62,North,0,0.0,0.0,22,0.00,CLR,,0.00,WeatherDisplay:10.37,2013-08-10 00:07:00,
2013-08-09 19:12:00,103.3,58.3,29.63,North,0,0.0,0.0,23,0.00,CLR,,0.00,WeatherDisplay:10.37,2013-08-10 00:12:00,
2013-08-09 19:17:00,102.9,58.0,29.63,North,0,0.0,0.0,23,0.00,CLR,,0.00,WeatherDisplay:10.37,2013-08-10 00:17:00,
2013-08-09 19:22:00,102.6,57.7,29.63,North,0,0.0,0.0,23,0.00,CLR,,0.00,WeatherDisplay:10.37,2013-08-10 00:22:00,
2013-08-09 19:27:00,102.0,57.2,29.63,North,0,0.0,0.0,23,0.00,CLR,,0.00,WeatherDisplay:10.37,2013-08-10 00:27:00,
2013-08-09 19:32:00,101.5,58.0,29.63,North,0,0.0,0.0,24,0.00,CLR,,0.00,WeatherDisplay:10.37,2013-08-10 00:32:00,
2013-08-09 19:37:00,101.1,57.7,29.63,North,0,0.0,0.0,24,0.00,CLR,,0.00,WeatherDisplay:10.37,2013-08-10 00:37:00,
2013-08-09 19:42:00,100.8,57.4,29.64,North,0,0.0,0.0,24,0.00,CLR,,0.00,WeatherDisplay:10.37,2013-08-10 00:42:00,
2013-08-09 19:47:00,100.4,57.1,29.63,North,0,0.0,0.0,24,0.00,CLR,,0.00,WeatherDisplay:10.37,2013-08-10 00:47:00,
2013-08-09 19:52:00,99.9,56.6,29.63,North,0,0.0,0.0,24,0.00,CLR,,0.00,WeatherDisplay:10.37,2013-08-10 00:52:00,
2013-08-09 19:57:00,99.5,57.4,29.63,North,0,0.0,0.0,25,0.00,CLR,,0.00,WeatherDisplay:10.37,2013-08-10 00:57:00,
2013-08-09 20:02:00,99.1,57.1,29.63,North,0,0.0,0.0,25,0.00,CLR,,0.00,WeatherDisplay:10.37,2013-08-10 01:02:00,
2013-08-09 20:07:00,98.6,57.8,29.63,North,0,0.0,0.0,26,0.00,CLR,,0.00,WeatherDisplay:10.37,2013-08-10 01:07:00,
2013-08-09 20:12:00,98.2,57.5,29.63,North,0,0.0,0.0,26,0.00,CLR,,0.00,WeatherDisplay:10.37,2013-08-10 01:12:00,
2013-08-09 20:17:00,97.5,57.9,29.63,North,0,0.0,0.0,27,0.00,CLR,,0.00,WeatherDisplay:10.37,2013-08-10 01:17:00,
2013-08-09 20:22:00,97.0,57.5,29.64,North,0,0.0,0.0,27,0.00,CLR,,0.00,WeatherDisplay:10.37,2013-08-10 01:22:00,
2013-08-09 20:27:00,96.8,58.3,29.64,North,0,0.0,0.0,28,0.00,CLR,,0.00,WeatherDisplay:10.37,2013-08-10 01:27:00,
2013-08-09 20:32:00,96.4,59.0,29.64,North,0,0.0,0.0,29,0.00,CLR,,0.00,WeatherDisplay:10.37,2013-08-10 01:32:00,
2013-08-09 20:37:00,96.4,59.0,29.65,North,0,0.0,0.0,29,0.00,CLR,,0.00,WeatherDisplay:10.37,2013-08-10 01:37:00,
2013-08-09 20:42:00,95.9,58.5,29.65,North,0,0.0,0.0,29,0.00,CLR,,0.00,WeatherDisplay:10.37,2013-08-10 01:42:00,
2013-08-09 20:47:00,95.4,59.0,29.65,North,0,0.0,0.0,30,0.00,CLR,,0.00,WeatherDisplay:10.37,2013-08-10 01:47:00,
2013-08-09 20:52:00,95.0,58.7,29.65,North,0,0.0,0.0,30,0.00,CLR,,0.00,WeatherDisplay:10.37,2013-08-10 01:52:00,
2013-08-09 20:57:00,94.6,59.3,29.66,North,0,0.0,0.0,31,0.00,CLR,,0.00,WeatherDisplay:10.37,2013-08-10 01:57:00,
2013-08-09 21:02:00,94.5,59.2,29.66,North,0,0.0,0.0,31,0.00,BKN,,0.00,WeatherDisplay:10.37,2013-08-10 02:02:00,
2013-08-09 21:07:00,94.1,59.7,29.66,North,0,0.0,0.0,32,0.00,BKN,,0.00,WeatherDisplay:10.37,2013-08-10 02:07:00,
2013-08-09 21:12:00,93.9,59.6,29.66,North,0,0.0,0.0,32,0.00,BKN,,0.00,WeatherDisplay:10.37,2013-08-10 02:12:00,
2013-08-09 21:17:00,93.7,60.3,29.66,North,0,0.0,0.0,33,0.00,BKN,,0.00,WeatherDisplay:10.37,2013-08-10 02:17:00,
2013-08-09 21:22:00,93.6,60.1,29.66,North,0,0.0,0.0,33,0.00,BKN,,0.00,WeatherDisplay:10.37,2013-08-10 02:22:00,
2013-08-09 21:27:00,93.6,61.0,29.66,North,0,0.0,0.0,34,0.00,BKN,,0.00,WeatherDisplay:10.37,2013-08-10 02:27:00,
2013-08-09 21:32:00,93.2,60.7,29.67,North,0,0.0,0.0,34,0.00,BKN,,0.00,WeatherDisplay:10.37,2013-08-10 02:32:00,
2013-08-09 21:37:00,92.5,62.4,29.67,North,0,0.0,0.0,37,0.00,BKN,,0.00,WeatherDisplay:10.37,2013-08-10 02:37:00,
2013-08-09 21:42:00,91.4,62.2,29.67,North,0,0.0,0.0,38,0.00,BKN,,0.00,WeatherDisplay:10.37,2013-08-10 02:42:00,
2013-08-09 21:47:00,90.9,62.5,29.67,North,0,0.0,0.0,39,0.00,BKN,,0.00,WeatherDisplay:10.37,2013-08-10 02:47:00,
2013-08-09 21:53:00,90.7,63.0,29.67,North,0,0.0,0.0,40,0.00,BKN,,0.00,WeatherDisplay:10.37,2013-08-10 02:53:00,
2013-08-09 21:58:00,90.5,62.9,29.67,North,0,0.0,0.0,40,0.00,BKN,,0.00,WeatherDisplay:10.37,2013-08-10 02:58:00,
2013-08-09 22:03:00,90.5,62.9,29.67,North,0,0.0,0.0,40,0.00,CLR,,0.00,WeatherDisplay:10.37,2013-08-10 03:03:00,
2013-08-09 22:08:00,90.5,62.9,29.67,North,0,0.0,0.0,40,0.00,CLR,,0.00,WeatherDisplay:10.37,2013-08-10 03:08:00,
2013-08-09 22:13:00,90.5,62.9,29.67,North,0,0.0,0.0,40,0.00,CLR,,0.00,WeatherDisplay:10.37,2013-08-10 03:13:00,
2013-08-09 22:18:00,90.5,62.9,29.67,North,0,0.0,0.0,40,0.00,CLR,,0.00,WeatherDisplay:10.37,2013-08-10 03:18:00,
2013-08-09 22:23:00,90.5,62.9,29.68,North,0,0.0,0.0,40,0.00,CLR,,0.00,WeatherDisplay:10.37,2013-08-10 03:23:00,
2013-08-09 22:28:00,90.3,63.4,29.69,North,0,0.0,0.0,41,0.00,CLR,,0.00,WeatherDisplay:10.37,2013-08-10 03:28:00,
2013-08-09 22:33:00,90.0,63.8,29.69,North,0,0.0,0.0,42,0.00,CLR,,0.00,WeatherDisplay:10.37,2013-08-10 03:33:00,
2013-08-09 22:38:00,89.6,63.5,29.69,North,0,0.0,0.0,42,0.00,CLR,,0.00,WeatherDisplay:10.37,2013-08-10 03:38:00,
2013-08-09 22:43:00,89.4,64.0,29.68,North,0,0.0,0.0,43,0.00,CLR,,0.00,WeatherDisplay:10.37,2013-08-10 03:43:00,
2013-08-09 22:48:00,89.1,63.7,29.68,North,0,0.0,0.0,43,0.00,CLR,,0.00,WeatherDisplay:10.37,2013-08-10 03:48:00,
2013-08-09 22:53:00,89.1,63.7,29.69,North,0,0.0,0.0,43,0.00,CLR,,0.00,WeatherDisplay:10.37,2013-08-10 03:53:00,
2013-08-09 22:58:00,89.1,63.7,29.69,North,0,0.0,0.0,43,0.00,CLR,,0.00,WeatherDisplay:10.37,2013-08-10 03:58:00,
2013-08-09 23:01:00,89.1,63.7,29.69,North,0,0.0,0.0,43,0.00,CLR,,0.00,WeatherDisplay:10.37,2013-08-10 04:01:00,
2013-08-09 23:02:00,89.1,63.7,29.69,North,0,0.0,0.0,43,0.00,CLR,,0.00,WeatherDisplay:10.37,2013-08-10 04:02:00,
2013-08-09 23:06:00,88.9,63.5,29.69,North,0,0.0,0.0,43,0.00,CLR,,0.00,WeatherDisplay:10.37,2013-08-10 04:06:00,
2013-08-09 23:11:00,88.9,63.5,29.69,North,0,0.0,0.0,43,0.00,CLR,,0.00,WeatherDisplay:10.37,2013-08-10 04:11:00,
2013-08-09 23:16:00,88.9,63.5,29.69,North,0,0.0,0.0,43,0.00,CLR,,0.00,WeatherDisplay:10.37,2013-08-10 04:16:00,
2013-08-09 23:21:00,88.9,63.5,29.69,North,0,0.0,0.0,43,0.00,CLR,,0.00,WeatherDisplay:10.37,2013-08-10 04:21:00,
2013-08-09 23:26:00,88.9,63.5,29.69,North,0,0.0,0.0,43,0.00,CLR,,0.00,WeatherDisplay:10.37,2013-08-10 04:26:00,
2013-08-09 23:31:00,88.9,63.5,29.70,North,0,0.0,0.0,43,0.00,CLR,,0.00,WeatherDisplay:10.37,2013-08-10 04:31:00,
2013-08-09 23:36:00,88.5,63.8,29.69,North,0,0.0,0.0,44,0.00,CLR,,0.00,WeatherDisplay:10.37,2013-08-10 04:36:00,
2013-08-09 23:41:00,88.2,63.5,29.70,North,0,0.0,0.0,44,0.00,CLR,,0.00,WeatherDisplay:10.37,2013-08-10 04:41:00,
2013-08-09 23:46:00,88.0,63.3,29.70,North,0,0.0,0.0,44,0.00,CLR,,0.00,WeatherDisplay:10.37,2013-08-10 04:46:00,
2013-08-09 23:51:00,87.8,63.8,29.70,North,0,0.0,0.0,45,0.00,CLR,,0.00,WeatherDisplay:10.37,2013-08-10 04:51:00,
2013-08-09 23:56:00,87.8,64.4,29.70,North,0,0.0,0.0,46,0.00,CLR,,0.00,WeatherDisplay:10.37,2013-08-10 04:56:00,